Location: Newark
(37.8333°N, 119.5000°W)
Time: 09:03:32
(UTC+00:00)

Tiros 1 despin weight - Pass Details

Date: 20 August 2019
Orbit: 594 x 642 km, 48.2° (Epoch: 23 September)

Event Time Altitude Azimuth Distance (km) Brightness Sun altitude
Rises 14:36:22 0° 300° (WNW) 2,903 ? 14.4°
Reaches altitude 10° 14:38:42 10° 296° (WNW) 2,002 ? 14.9°
Maximum altitude 14:43:12 54° 219° (SW) 767 ? 15.8°
Drops below altitude 10° 14:47:44 10° 142° (SE) 2,016 ? 16.6°
Sets 14:50:06 0° 138° (SE) 2,925 ? 17.1°
